FWV98 LYTV-LGSK

Flight info

Callsign FWV98
Flight time 0h 57m
Altitude 35000
Route LASTI DCT PETAK DCT DOBAR DCT TALAS UN130 TSL
Aircraft A320/M-SDE3FGHIRWY/LB1

Departure

Time 2026-05-04 18:18
Airport Tivat Airport (LYTV)

Arrival

Time 2026-05-04 19:15
Airport Skiathos Island National Airport (LGSK)
Time Latitude Longitude Altitude Speed Heading
2026-05-04 17:54 42.41157 18.71750 0 ft 0 kts 148°
2026-05-04 18:10 42.41125 18.71772 24 ft 8 kts 156°
2026-05-04 18:11 42.41079 18.71798 25 ft 6 kts 153°
2026-05-04 18:11 42.41048 18.71830 25 ft 5 kts 140°
2026-05-04 18:11 42.41000 18.71846 25 ft 8 kts 206°
2026-05-04 18:11 42.40934 18.71798 26 ft 14 kts 181°
2026-05-04 18:12 42.40861 18.71864 23 ft 12 kts 137°
2026-05-04 18:12 42.40784 18.71956 22 ft 16 kts 141°
2026-05-04 18:12 42.40702 18.72053 22 ft 15 kts 139°
2026-05-04 18:12 42.40624 18.72145 21 ft 16 kts 138°
2026-05-04 18:13 42.40533 18.72254 22 ft 18 kts 139°
2026-05-04 18:13 42.40441 18.72362 23 ft 19 kts 139°
2026-05-04 18:13 42.40235 18.72604 24 ft 21 kts 139°
2026-05-04 18:14 42.40122 18.72738 21 ft 22 kts 139°
2026-05-04 18:14 42.40002 18.72882 20 ft 24 kts 139°
2026-05-04 18:14 42.39874 18.73033 19 ft 25 kts 139°
2026-05-04 18:15 42.39647 18.73247 23 ft 9 kts 167°
2026-05-04 18:15 42.39656 18.73292 23 ft 3 kts 343°
2026-05-04 18:15 42.39686 18.73252 22 ft 0 kts 314°
2026-05-04 18:17 42.39763 18.73163 22 ft 48 kts 319°
2026-05-04 18:18 42.40198 18.72648 24 ft 115 kts 319°
2026-05-04 18:18 42.40934 18.71791 38 ft 161 kts 321°
2026-05-04 18:18 42.41842 18.70821 578 ft 169 kts 322°
2026-05-04 18:18 42.42498 18.69556 1266 ft 170 kts 278°
2026-05-04 18:19 42.41288 18.66931 2266 ft 190 kts 216°
2026-05-04 18:19 42.40155 18.65810 2525 ft 214 kts 217°
2026-05-04 18:19 42.38906 18.64569 2966 ft 228 kts 217°
2026-05-04 18:20 42.37620 18.63282 3785 ft 231 kts 217°
2026-05-04 18:20 42.36327 18.61979 4569 ft 233 kts 217°
2026-05-04 18:20 42.35019 18.60653 5319 ft 236 kts 217°
2026-05-04 18:20 42.33687 18.59343 6063 ft 240 kts 210°
2026-05-04 18:21 42.32108 18.58588 6728 ft 248 kts 187°
2026-05-04 18:21 42.30350 18.58687 7291 ft 257 kts 172°
2026-05-04 18:21 42.28555 18.59001 7996 ft 263 kts 172°
2026-05-04 18:21 42.26730 18.59314 8744 ft 267 kts 172°
2026-05-04 18:22 42.24893 18.59780 9472 ft 271 kts 160°
2026-05-04 18:22 42.23207 18.60918 10173 ft 274 kts 142°
2026-05-04 18:22 42.21791 18.62738 10516 ft 290 kts 124°
2026-05-04 18:22 42.20714 18.65076 11092 ft 296 kts 118°
2026-05-04 18:23 42.19642 18.67476 11762 ft 301 kts 119°
2026-05-04 18:23 42.18545 18.69909 12042 ft 304 kts 119°
2026-05-04 18:23 42.17454 18.72308 12113 ft 304 kts 119°
2026-05-04 18:23 42.16332 18.74762 12114 ft 304 kts 120°
2026-05-04 18:24 42.15220 18.77193 12249 ft 307 kts 119°
2026-05-04 18:24 42.14115 18.79612 12997 ft 308 kts 119°
2026-05-04 18:24 42.12985 18.82081 13723 ft 311 kts 119°
2026-05-04 18:24 42.11846 18.84576 14361 ft 315 kts 118°
2026-05-04 18:25 42.10696 18.87095 14976 ft 318 kts 119°
2026-05-04 18:25 42.09382 18.89547 15370 ft 331 kts 122°
2026-05-04 18:25 42.08201 18.92297 15502 ft 348 kts 113°
2026-05-04 18:25 42.07194 18.95339 15633 ft 365 kts 109°
2026-05-04 18:26 42.06250 18.98585 15912 ft 377 kts 108°
2026-05-04 18:26 42.05313 19.01900 16413 ft 382 kts 108°
2026-05-04 18:26 42.04338 19.05248 16969 ft 386 kts 109°
2026-05-04 18:26 42.03319 19.08598 17527 ft 389 kts 110°
2026-05-04 18:27 42.02258 19.11968 18075 ft 393 kts 110°
2026-05-04 18:27 42.01164 19.15363 18554 ft 398 kts 110°
2026-05-04 18:27 42.00049 19.18784 18989 ft 402 kts 110°
2026-05-04 18:27 41.98919 19.22243 19435 ft 406 kts 110°
2026-05-04 18:28 41.97784 19.25732 19877 ft 409 kts 110°
2026-05-04 18:28 41.96641 19.29254 20320 ft 413 kts 110°
2026-05-04 18:28 41.95492 19.32801 20761 ft 416 kts 110°
2026-05-04 18:28 41.94333 19.36382 21194 ft 419 kts 110°
2026-05-04 18:29 41.93163 19.39989 21627 ft 423 kts 110°
2026-05-04 18:29 41.91988 19.43613 22035 ft 426 kts 110°
2026-05-04 18:29 41.91209 19.46012 22325 ft 428 kts 110°
2026-05-04 18:29 41.90015 19.49688 22785 ft 430 kts 109°
2026-05-04 18:30 41.87603 19.57096 23615 ft 436 kts 109°
2026-05-04 18:30 41.86385 19.60827 23958 ft 439 kts 109°
2026-05-04 18:30 41.85136 19.64643 24295 ft 442 kts 110°
2026-05-04 18:31 41.83897 19.68423 24628 ft 444 kts 110°
2026-05-04 18:31 41.83130 19.70757 24854 ft 446 kts 110°
2026-05-04 18:31 41.82001 19.74188 25154 ft 448 kts 110°
2026-05-04 18:32 41.80739 19.78026 25492 ft 450 kts 110°
2026-05-04 18:32 41.79473 19.81873 25824 ft 453 kts 110°
2026-05-04 18:32 41.78195 19.85748 26141 ft 455 kts 110°
2026-05-04 18:32 41.76915 19.89624 26431 ft 457 kts 110°
2026-05-04 18:33 41.75621 19.93536 26759 ft 460 kts 110°
2026-05-04 18:33 41.74322 19.97461 27064 ft 462 kts 110°
2026-05-04 18:33 41.73016 20.01409 27369 ft 465 kts 110°
2026-05-04 18:33 41.71703 20.05370 27681 ft 467 kts 110°
2026-05-04 18:34 41.70381 20.09351 27976 ft 469 kts 110°
2026-05-04 18:34 41.69048 20.13350 28269 ft 471 kts 110°
2026-05-04 18:34 41.67705 20.17363 28560 ft 474 kts 110°
2026-05-04 18:34 41.66353 20.21398 28820 ft 476 kts 110°
2026-05-04 18:35 41.64997 20.25445 29067 ft 478 kts 110°
2026-05-04 18:35 41.63634 20.29511 29326 ft 480 kts 110°
2026-05-04 18:35 41.62283 20.33539 29614 ft 482 kts 110°
2026-05-04 18:35 41.60913 20.37631 29871 ft 484 kts 110°
2026-05-04 18:36 41.59537 20.41738 30189 ft 484 kts 110°
2026-05-04 18:36 41.58157 20.45837 30522 ft 483 kts 110°
2026-05-04 18:36 41.56778 20.49921 30893 ft 481 kts 110°
2026-05-04 18:36 41.55406 20.53975 31255 ft 479 kts 110°
2026-05-04 18:37 41.54027 20.58037 31573 ft 479 kts 110°
2026-05-04 18:37 41.52656 20.62075 31915 ft 478 kts 110°
2026-05-04 18:37 41.51280 20.66131 32262 ft 477 kts 110°
2026-05-04 18:37 41.49920 20.70134 32593 ft 476 kts 110°
2026-05-04 18:38 41.48554 20.74154 32934 ft 475 kts 110°
2026-05-04 18:38 41.47194 20.78153 33264 ft 474 kts 110°
2026-05-04 18:38 41.45831 20.82147 33612 ft 473 kts 110°
2026-05-04 18:38 41.44464 20.86141 33889 ft 474 kts 110°
2026-05-04 18:39 41.43094 20.90132 34172 ft 473 kts 110°
2026-05-04 18:39 41.41719 20.94123 34429 ft 473 kts 110°
2026-05-04 18:39 41.40346 20.98105 34681 ft 473 kts 110°
2026-05-04 18:39 41.38976 21.02081 34916 ft 473 kts 111°
2026-05-04 18:40 41.37605 21.06065 35084 ft 473 kts 111°
2026-05-04 18:40 41.34865 21.14029 35145 ft 474 kts 111°
2026-05-04 18:41 41.32117 21.21995 35116 ft 473 kts 111°
2026-05-04 18:41 41.29365 21.29951 35116 ft 473 kts 111°
2026-05-04 18:42 41.26599 21.37892 35122 ft 473 kts 111°
2026-05-04 18:42 41.23829 21.45828 35112 ft 473 kts 111°
2026-05-04 18:43 41.21051 21.53762 35113 ft 473 kts 111°
2026-05-04 18:43 41.18265 21.61680 35125 ft 474 kts 111°
2026-05-04 18:44 41.15469 21.69601 35122 ft 474 kts 111°
2026-05-04 18:44 41.12688 21.77465 35116 ft 474 kts 111°
2026-05-04 18:45 41.09879 21.85425 35132 ft 474 kts 111°
2026-05-04 18:45 41.06804 21.93163 35124 ft 478 kts 122°
2026-05-04 18:46 41.02831 22.00175 35110 ft 479 kts 124°
2026-05-04 18:46 40.98788 22.07265 35102 ft 479 kts 124°
2026-05-04 18:47 40.94802 22.14274 35123 ft 479 kts 124°
2026-05-04 18:47 40.90788 22.21297 35116 ft 478 kts 124°
2026-05-04 18:48 40.86775 22.28290 35114 ft 477 kts 124°
2026-05-04 18:48 40.82766 22.35274 35105 ft 476 kts 124°
2026-05-04 18:49 40.78759 22.42228 35102 ft 476 kts 124°
2026-05-04 18:49 40.74748 22.49185 35112 ft 476 kts 125°
2026-05-04 18:50 40.70748 22.56111 35109 ft 474 kts 125°
2026-05-04 18:50 40.66751 22.63004 35106 ft 473 kts 125°
2026-05-04 18:51 40.62753 22.69869 35105 ft 472 kts 125°
2026-05-04 18:51 40.58773 22.76705 35103 ft 471 kts 125°
2026-05-04 18:52 40.54790 22.83535 35118 ft 469 kts 126°
2026-05-04 18:52 40.50826 22.90315 35115 ft 467 kts 126°
2026-05-04 18:53 40.46791 22.96993 35109 ft 466 kts 132°
2026-05-04 18:53 40.41731 23.02267 35106 ft 466 kts 148°
2026-05-04 18:54 40.36185 23.06675 35101 ft 466 kts 148°
2026-05-04 18:54 40.30633 23.11085 35113 ft 466 kts 148°
2026-05-04 18:55 40.25108 23.15481 34806 ft 461 kts 148°
2026-05-04 18:55 40.19650 23.19816 34332 ft 458 kts 148°
2026-05-04 18:55 40.16928 23.21969 33971 ft 458 kts 148°
2026-05-04 18:56 40.14183 23.24137 32822 ft 465 kts 148°
2026-05-04 18:56 40.11402 23.26332 31807 ft 469 kts 148°
2026-05-04 18:56 40.08609 23.28539 31059 ft 467 kts 148°
2026-05-04 18:56 40.05840 23.30725 30376 ft 464 kts 148°
2026-05-04 18:57 40.03082 23.32900 29527 ft 461 kts 148°
2026-05-04 18:57 40.00338 23.35059 28681 ft 459 kts 148°
2026-05-04 18:57 39.97618 23.37196 28053 ft 453 kts 148°
2026-05-04 18:57 39.94930 23.39304 27400 ft 447 kts 148°
2026-05-04 18:58 39.92279 23.41385 26757 ft 442 kts 148°
2026-05-04 18:58 39.89655 23.43443 26131 ft 439 kts 147°
2026-05-04 18:58 39.87051 23.45487 25485 ft 436 kts 147°
2026-05-04 18:58 39.84467 23.47512 24876 ft 433 kts 147°
2026-05-04 18:59 39.81894 23.49524 24284 ft 430 kts 147°
2026-05-04 18:59 39.79338 23.51523 23667 ft 427 kts 147°
2026-05-04 18:59 39.76799 23.53510 23042 ft 424 kts 147°
2026-05-04 18:59 39.74290 23.55468 22503 ft 418 kts 147°
2026-05-04 19:00 39.71810 23.57394 21982 ft 413 kts 147°
2026-05-04 19:00 39.69354 23.59298 21487 ft 408 kts 147°
2026-05-04 19:00 39.66932 23.61178 21002 ft 404 kts 147°
2026-05-04 19:00 39.64537 23.63037 20512 ft 400 kts 147°
2026-05-04 19:01 39.62163 23.64885 20024 ft 396 kts 147°
2026-05-04 19:01 39.59806 23.66720 19528 ft 394 kts 147°
2026-05-04 19:01 39.57463 23.68540 19030 ft 392 kts 147°
2026-05-04 19:01 39.55127 23.70355 18522 ft 391 kts 147°
2026-05-04 19:02 39.52795 23.72164 17964 ft 390 kts 147°
2026-05-04 19:02 39.50477 23.73958 17447 ft 387 kts 147°
2026-05-04 19:02 39.48169 23.75740 16930 ft 386 kts 147°
2026-05-04 19:02 39.45863 23.77518 16401 ft 385 kts 147°
2026-05-04 19:03 39.43562 23.79295 15877 ft 384 kts 147°
2026-05-04 19:03 39.41270 23.81067 15353 ft 384 kts 147°
2026-05-04 19:03 39.40292 23.81823 15127 ft 384 kts 147°
2026-05-04 19:03 39.40063 23.82000 15075 ft 384 kts 147°
2026-05-04 19:04 39.39488 23.82445 14944 ft 383 kts 147°
2026-05-04 19:04 39.37198 23.84208 14420 ft 383 kts 147°
2026-05-04 19:04 39.34909 23.85967 13874 ft 383 kts 147°
2026-05-04 19:04 39.32614 23.87731 13292 ft 382 kts 147°
2026-05-04 19:05 39.30336 23.89480 12755 ft 380 kts 147°
2026-05-04 19:05 39.28071 23.91220 12203 ft 378 kts 147°
2026-05-04 19:05 39.25689 23.92620 11660 ft 378 kts 165°
2026-05-04 19:05 39.23080 23.92887 11096 ft 376 kts 187°
2026-05-04 19:06 39.20610 23.91918 10614 ft 369 kts 211°
2026-05-04 19:06 39.18635 23.89911 10482 ft 349 kts 231°
2026-05-04 19:06 39.17379 23.87391 10355 ft 330 kts 251°
2026-05-04 19:06 39.16826 23.84625 10229 ft 312 kts 269°
2026-05-04 19:07 39.16884 23.81911 10110 ft 296 kts 278°
2026-05-04 19:07 39.17044 23.79294 9866 ft 290 kts 278°
2026-05-04 19:07 39.17197 23.76715 9492 ft 288 kts 278°
2026-05-04 19:07 39.17348 23.74137 9078 ft 287 kts 278°
2026-05-04 19:08 39.17496 23.71571 8672 ft 287 kts 278°
2026-05-04 19:08 39.17643 23.69011 8264 ft 286 kts 278°
2026-05-04 19:08 39.17790 23.66456 7720 ft 288 kts 278°
2026-05-04 19:08 39.17726 23.63861 6943 ft 295 kts 259°
2026-05-04 19:09 39.16844 23.61442 6142 ft 304 kts 233°
2026-05-04 19:09 39.15222 23.59741 5536 ft 300 kts 208°
2026-05-04 19:09 39.13394 23.58556 5111 ft 287 kts 207°
2026-05-04 19:09 39.11650 23.57421 4741 ft 275 kts 208°
2026-05-04 19:10 39.09975 23.56327 4359 ft 268 kts 207°
2026-05-04 19:10 39.08321 23.55242 4134 ft 262 kts 207°
2026-05-04 19:10 39.06727 23.54199 3934 ft 255 kts 207°
2026-05-04 19:10 39.05152 23.53171 3635 ft 253 kts 208°
2026-05-04 19:11 39.03589 23.52153 3361 ft 250 kts 208°
2026-05-04 19:11 39.02281 23.50759 3056 ft 243 kts 242°
2026-05-04 19:11 39.01912 23.48723 2758 ft 233 kts 280°
2026-05-04 19:11 39.02611 23.46956 2404 ft 221 kts 321°
2026-05-04 19:12 39.03963 23.46329 2373 ft 202 kts 357°
2026-05-04 19:12 39.06151 23.46915 1965 ft 183 kts 11°
2026-05-04 19:12 39.07335 23.47282 1798 ft 168 kts 10°
2026-05-04 19:13 39.08416 23.47606 1692 ft 153 kts 10°
2026-05-04 19:13 39.09435 23.47905 1550 ft 148 kts
2026-05-04 19:13 39.10435 23.48192 1343 ft 147 kts 10°
2026-05-04 19:13 39.11428 23.48475 1146 ft 146 kts 10°
2026-05-04 19:14 39.12420 23.48757 955 ft 146 kts 10°
2026-05-04 19:14 39.13427 23.48854 697 ft 144 kts 355°
2026-05-04 19:14 39.14416 23.48821 644 ft 145 kts
2026-05-04 19:14 39.15389 23.49192 585 ft 148 kts 18°
2026-05-04 19:15 39.16332 23.49661 361 ft 144 kts 22°
2026-05-04 19:15 39.17251 23.50167 25 ft 141 kts 20°
2026-05-04 19:15 39.17996 23.50448 45 ft 70 kts 25°
2026-05-04 19:15 39.18174 23.50560 51 ft 3 kts 18°
2026-05-04 19:16 39.18218 23.50579 54 ft 5 kts 18°
2026-05-04 19:16 39.18235 23.50586 55 ft 0 kts 18°